This demonstration page uses our WeatherBlox Daily Observations layout. Learn more.

Left ArrowRight Arrow

31.84235, -102.49876

Hourly Observations for March 17, 2015

Temp ( °F °C ) Dew Point ( °F °C ) Humidity (%) Winds ( mph kmh ) Pressure ( in mb ) Visibility ( mi km ) Precip ( " mm )
12:53 am 00:53 Clear 57 13.9 47 8.3 69 69 SSW 8 13 30.06 1018 10 16 0.00 0.00
1:53 am 01:53 Mostly Cloudy 57 13.9 48 8.9 72 72 SSW 9 15 30.06 1018 10 16 0.00 0.00
2:53 am 02:53 Cloudy 59 15 49 9.4 69 69 S 14 22 30.05 1018 10 16 0.00 0.00
3:53 am 03:53 Clear 57 13.9 49 9.4 74 74 S 12 19 30.04 1017 10 16 0.00 0.00
4:53 am 04:53 Mostly Clear 56 13.3 49 9.4 77 77 S 12 19 30.03 1017 10 16 0.00 0.00
5:53 am 05:53 Cloudy 57 13.9 50 10 78 78 SSW 14 22 30.01 1016 10 16 0.00 0.00
6:53 am 06:53 Mostly Clear 56 13.3 49 9.4 77 77 SSW 8 13 30.02 1017 10 16 0.00 0.00
7:53 am 07:53 Clear 55 12.8 49 9.4 80 80 Calm 30.03 1017 10 16 0.00 0.00
8:53 am 08:53 Mostly Sunny 55 12.8 50 10 83 83 SE 5 7 30.05 1018 10 16 0.00 0.00
9:53 am 09:53 Cloudy 57 13.9 50 10 78 78 S 5 7 30.06 1018 10 16 0.00 0.03
10:53 am 10:53 Cloudy with Rain 56 13.3 52 11.1 87 87 E 6 9 30.10 1019 4 6 0.01 0.25
11:05 am 11:05 Cloudy with Rain 56 13.3 53 11.7 90 90 NE 13 20 30.12 1020 2 3 0.03 0.76
11:13 am 11:13 Cloudy with Rain 56 13.3 52 11.1 87 87 NNE 17 28 30.12 1020 3 4 0.05 1.27
11:20 am 11:20 Cloudy with Rain 55 12.8 52 11.1 90 90 NE 15 24 30.12 1020 2 3 0.08 2.03
11:30 am 11:30 Cloudy with Light Rain 55 12.8 52 11.1 90 90 NE 14 22 30.15 1021 3 4 0.10 2.54
11:38 am 11:38 Cloudy with Light Rain 54 12.2 52 11.1 93 93 NE 12 19 30.18 1022 3 5 0.10 2.54
11:53 am 11:53 Cloudy with Light Rain 55 12.8 52 11.1 90 90 NE 15 24 30.13 1020 4 6 0.10 2.54
12:10 pm 12:10 Cloudy with Light Rain 55 12.8 52 11.1 90 90 NE 14 22 30.15 1021 3 5 0.01 0.25
12:41 pm 12:41 Cloudy with Light Rain 57 13.9 54 12.2 90 90 ENE 12 19 30.12 1020 4 6 0.03 0.76
12:53 pm 12:53 Cloudy with Light Rain 57 13.9 53 11.7 87 87 ENE 13 20 30.12 1020 5 8 0.03 0.76
1:53 pm 13:53 Cloudy with Mist and Fog 57 13.9 53 11.7 87 87 ESE 12 19 30.10 1019 3 5 0.01 0.25
2:35 pm 14:35 Cloudy with Mist and Fog 57 13.9 53 11.7 87 87 E 12 19 30.09 1019 4 6 0.00 0.00
2:53 pm 14:53 Cloudy with Mist and Fog 57 13.9 53 11.7 87 87 E 10 17 30.07 1018 4 6 0.00 0.00
3:53 pm 15:53 Cloudy with Mist and Fog 57 13.9 54 12.2 90 90 E 9 15 30.05 1018 4 6 0.00 0.00
4:18 pm 16:18 Cloudy with Light Rain 56 13.3 54 12.2 93 93 E 9 15 30.06 1018 2 3 0.00 0.03
4:23 pm 16:23 Cloudy with Light Rain 56 13.3 53 11.7 90 90 E 12 19 30.06 1018 2 2 0.00 0.03
4:38 pm 16:38 Cloudy with Light Rain 56 13.3 54 12.2 93 93 E 13 20 30.06 1018 1 1 0.02 0.51
4:53 pm 16:53 Cloudy with Heavy Rain 55 12.8 53 11.7 93 93 ENE 18 30 30.06 1018 1 1 0.07 1.78
5:08 pm 17:08 Cloudy with Light Rain 52 11.1 50 10 93 93 NE 20 31 30.09 1019 1 2 0.06 1.52
5:17 pm 17:17 Cloudy with Light Rain 52 11.1 50 10 93 93 NE 20 31 30.09 1019 2 3 0.07 1.78
5:31 pm 17:31 Cloudy with Light Rain 52 11.1 50 10 93 93 NE 18 30 30.09 1019 2 3 0.08 2.03
5:53 pm 17:53 Cloudy with Light Rain 51 10.6 49 9.4 92 92 NE 20 31 30.06 1018 3 4 0.10 2.54
6:33 pm 18:33 Cloudy with Light Rain 52 11.1 49 9.4 89 89 ENE 20 31 30.09 1019 5 8 0.02 0.51
6:53 pm 18:53 Cloudy with Light Rain 51 10.6 48 8.9 89 89 NE 20 31 30.06 1018 3 4 0.02 0.51
7:21 pm 19:21 Cloudy with Light Rain 51 10.6 48 8.9 89 89 NE 18 30 30.09 1019 3 5 0.02 0.51
7:53 pm 19:53 Cloudy with Light Rain 51 10.6 48 8.9 89 89 NE 14 22 30.07 1018 5 8 0.02 0.51
8:53 pm 20:53 Cloudy 51 10.6 47 8.3 86 86 ENE 12 19 30.08 1019 10 16 0.00 0.03
9:53 pm 21:53 Cloudy with Light Rain 50 10 47 8.3 89 89 NE 8 13 30.09 1019 6 10 0.02 0.51
10:53 pm 22:53 Cloudy with Light Rain 48 8.9 45 7.2 89 89 NE 15 24 30.11 1020 3 5 0.04 1.02
11:04 pm 23:04 Cloudy with Light Rain 48 8.9 45 7.2 89 89 NE 13 20 30.18 1022 3 4 0.01 0.25
11:18 pm 23:18 Cloudy with Light Rain 48 8.9 45 7.2 89 89 NE 10 17 30.18 1022 3 5 0.02 0.51
11:27 pm 23:27 Cloudy with Light Rain 48 8.9 45 7.2 89 89 NNE 8 13 30.18 1022 2 3 0.04 1.02
11:36 pm 23:36 Cloudy with Light Rain 48 8.9 45 7.2 89 89 NE 7 11 30.18 1022 3 5 0.04 1.02
11:53 pm 23:53 Cloudy with Light Rain 48 8.9 45 7.2 89 89 NE 12 19 30.11 1020 4 6 0.05 1.27

Powered by AerisWeather